SALSAT

Last updated on Sun Jan 18 2026 00:03:08 GMT+0000 (Coordinated Universal Time)

1 46495U 20068K 26017.51523412 .00008033 00000+0 30545-3 0 9996 2 46495 97.8803 11.7411 0012201 106.9402 253.3174 15.27008951292341
UTC large
Height (km)
Speed (km/s)
/
Latitude / Longitude
Inclination (degrees)
Orbital Period (minutes)
Azimuth
Elevation
Range (km)
Doppler Factor

Next 0 passes for location: London (51.5072 / 0.1276)

Sorry there are no passes over London.